845  
ASUS42 KKEY 191010  
RWRKEY  
 
FLORIDA KEYS REGIONAL WEATHER ROUNDUP  
NATIONAL WEATHER SERVICE KEY WEST FLORIDA  
600 AM EDT FRI JUL 19 2019  
   
..SOUTH FLORIDA AND THE KEYS
 
 
 
CITY SKY/WX TMP DP RH WIND PRES REMARKS
 
FORT MYERS FAIR 76 74 93 E3 30.04S  
SW REGIONAL AP FAIR 76 74 93 E5 30.05S  
NAPLES NOT AVBL  
MIAMI LGT RAIN 82 73 74 VRB5 30.05R  
WEST KENDALL FAIR 80 74 81 NE6 30.05R  
HOMESTEAD FAIR 81 75 80 E6 30.04R  
MARATHON FAIR 84 74 71 E8 30.03S HX 91  
BOCA CHICA NAS FAIR 85 73 67 E13 30.03R HX 91  
KEY WEST INTL FAIR 83 74 74 E12 30.03S  
   
..INTERNATIONAL WEATHER
 
 
 
CITY SKY/WX TMP DP RH WIND PRES REMARKS
 
NASSAU PTCLDY 82 73 74 SE7 30.07S  
HAVANA PTCLDY 73 73 100 E3 30.00F  
VARADERO PTCLDY 75 73 94 E5 30.03S  
CANCUN PTCLDY 79 77 94 NE3 29.98F  
COZUMEL PTCLDY 77 73 88 E3 29.96S  
KINGSTON PTCLDY 81 66 61 NW6 29.94S  
   
..ADJACENT COASTAL WATERS
 
 
 
STATION/POSITION TIME SKY/WX TEMP WIND PRES WAVE
 
AIR SEA DIR/SP/G HT/PER  
(UTC) (F) (DEG/KT/KT) (MB) (FT/S)  
PULASKI SHOAL LI 0945 85 110/ 12/ 13 1016.8S  
SAND KEY 1000 84 110/ 15/ 17 1015.6  
SOMBRERO KEY 1000 84 100/ 11/ 13 1017.1  
LONG KEY 1000 85 1016.3  
MOLASSES REEF NOT AVBL  
FOWEY ROCKS 1000 84 85 110/ 13/ 14 1017.6R  
BUOY 42097 0930 85 N/A 2/ 4  
 

 
 
 
CLICK HERE TO GO TO PREVIOUS BULLETINS.

The Nexlab FL Page Main Text Page